Content
SEND FEEDBACK

Daily
Averages
Monthly
Summary
Philippines

QUEZON CITY, PHILIPPINES


Home > Asia > Philippines
Elevation: 46 meters     Latitude: 14 39N     Longitude: 121 03E

WEATHER
 
SELECT A DAY
Number of Records: 172,482;   Date Range: 7/1/96 - 7/26/14
 
SHARE

PRINT THIS DATA

[ ← Previous Day ]
WEATHER ALMANAC - 14 OCTOBER, 2013
[ Next Day → ]
[ °F ]   °C
Weather ElementAverageHighLow
Temperature27.4 °C30.6 °C (2:00 pm)25 °C (3:00 am)
Dewpoint24.9 °C26 °C (7:00 am)24 °C (8:00 am)
Humidity86 %100 % (3:00 am)67 % (2:00 pm)
Barometer1009.5 hPa1012.2 hPa (10:00 pm)1007.1 hPa (3:00 pm)
Wind Speed10.1 km/h24.1 km/h (2:00 pm)
Weather ElementAverage
Visibility9.5 km
Wind DirectionSSW (186.8 °)

Weather ElementTotal
Precipitation---
Cooling Degree Days9.4 (Base 18.3)
Growing Degree Days17.8 (Base 10)
Averaged from 31 records on 14 October, 2013
WEATHER CONDITIONS BREAKOUT
WIND DIRECTION BREAKOUT
WEATHER BY HOUR - 14 OCTOBER, 2013
[ °F ]   °C
Local TimeTemperatureDewpointHumidityBarometerVisibilityWind DirectionWind SpeedGust SpeedPrecipitationEventsConditions
1:00 AM26 °C25 °C94 %1008.1 hPa10 kmCalmPartly Cloudy
2:00 AM25.6 °C25 °C95 %1008.5 hPa9.7 kmEast (90°)3.5 km/hHaze
2:00 AM26 °C25 °C94 %1008.1 hPa9 kmEast (100°)5.6 km/hPartly Cloudy
3:00 AM25 °C25 °C100 %1008.1 hPa9 kmVariable3.7 km/hPartly Cloudy
4:00 AM25 °C25 °C100 %1008.1 hPa8 kmVariable1.9 km/hPartly Cloudy
5:00 AM25 °C25 °C98 %1008.5 hPa8 kmSE (130°)3.5 km/hHaze
5:00 AM25 °C25 °C100 %1008.1 hPa6 kmVariable3.7 km/hPartly Cloudy
5:35 AM25 °C25 °C100 %1009.1 hPa9 kmNW (310°)7.4 km/hRainLight Rain Showers
6:00 AM25 °C25 °C100 %1009.1 hPa10 kmVariable1.9 km/hMostly Cloudy
7:00 AM26 °C26 °C100 %1010.2 hPa10 kmCalmMostly Cloudy
8:00 AM27.8 °C24.4 °C77 %1010.8 hPa9.7 kmWSW (240°)3.5 km/hHaze
8:00 AM28 °C24 °C79 %1010.2 hPa10 kmWSW (240°)1.9 km/hScattered Clouds
9:00 AM28 °C24 °C79 %1011.2 hPa10 kmWest (270°)7.4 km/hScattered Clouds
10:00 AM29 °C25 °C79 %1010.2 hPa10 kmWNW (290°)11.1 km/hPartly Cloudy
11:00 AM27 °C24 °C84 %1010.2 hPa10 kmSSW (210°)13 km/hPartly Cloudy
12:00 PM29 °C25 °C79 %1009.1 hPa10 kmWest (260°)16.7 km/hScattered Clouds
1:00 PM29 °C26 °C84 %1009.1 hPa10 kmWest (260°)18.5 km/hScattered Clouds
2:00 PM30.6 °C25.6 °C67 %1008.5 hPa9.7 kmWest (260°)21.6 km/hHaze
2:00 PM30 °C25 °C74 %1008.1 hPa10 kmWest (260°)24.1 km/hScattered Clouds
3:00 PM30 °C25 °C74 %1007.1 hPa10 kmWSW (250°)22.2 km/hScattered Clouds
4:00 PM30 °C25 °C74 %1008.1 hPa10 kmWest (260°)24.1 km/hPartly Cloudy
5:00 PM29.4 °C24.4 °C68 %1008.5 hPa9.7 kmWest (260°)21.6 km/hHaze
5:00 PM29 °C25 °C79 %1008.1 hPa10 kmWest (260°)22.2 km/hPartly Cloudy
6:00 PM28 °C25 °C84 %1009.1 hPaWSW (250°)16.7 km/hPartly Cloudy
7:00 PM28 °C25 °C84 %1010.2 hPa10 kmSW (220°)9.3 km/hScattered Clouds
8:00 PM27.8 °C25 °C81 %1009.1 hPa9.7 kmSSW (210°)3.5 km/hHaze
8:00 PM28 °C25 °C84 %1011.2 hPa10 kmSSW (210°)5.6 km/hScattered Clouds
9:00 PM28 °C25 °C84 %1011.2 hPa10 kmSW (220°)7.4 km/hScattered Clouds
10:00 PM27 °C26 °C94 %1012.2 hPa10 kmWSW (250°)18.5 km/hScattered Clouds
11:00 PM26.1 °C24.4 °C87 %1012.2 hPa9.7 kmWSW (240°)7.2 km/hHaze
11:00 PM26 °C24 °C89 %1011.2 hPa10 kmWSW (240°)7.4 km/hMostly Cloudy
Hourly data recorded from RPLL, located 0 kilometers away from Quezon City, Philippines







STORIES FROM OUR PARTNERS